Location: Newark
(49.8969°N, 3.3422°E)
Time: 20:47:54
(UTC+00:00)

Vanguard 1 Rocket - Pass Details

Date: 24 January 2020
Orbit: 650 x 4226 km, 34.3° (Epoch: 26 February)

Event Time Altitude Azimuth Distance (km) Brightness Sun altitude
Rises 08:39:55 0° 201° (SSW) 3,916 11.0 8.1°
Reaches altitude 10° 08:43:03 10° 184° (S) 3,345 11.0 8.5°
Maximum altitude 08:49:04 21° 140° (SE) 3,349 12.5 9.1°
Drops below altitude 10° 08:57:59 10° 99° (E) 5,219 12.2 10.1°
Sets 09:04:45 0° 87° (E) 6,958 12.5 10.9°
